Location: Diguira
(13.1838°N, 4.9109°W)
Time: 16:42:41
(UTC+00:00)

SWARM A - Pass Details

Date: 18 September 2020
Orbit: 430 x 433 km, 87.4° (Epoch: 24 October)

Event Time Altitude Azimuth Distance (km) Brightness Sun altitude
Rises 18:31:31 0° 9° (N) 2,395 7.9 -4.0°
Reaches altitude 10° 18:33:36 10° 16° (NNE) 1,527 6.9 -4.5°
Maximum altitude 18:36:47 44° 90° (E) 600 4.5 -5.3°
Drops below altitude 10° 18:39:57 10° 164° (SSE) 1,525 6.8 -6.1°
Sets 18:42:02 0° 171° (S) 2,390 7.9 -6.6°
